Tracking 18980 objects as of 22-Feb-2018
HD Live streaming from Space Station
objects crossing your sky now

COSMOS 1134

Track COSMOS 1134 now!
10-day predictions
COSMOS 1134 is classified as:


NORAD ID: 11542
Int'l Code: 1979-084E
Perigee: 1,460.6 km
Apogee: 1,490.8 km
Inclination: 74.0 °
Period: 115.3 minutes
Semi major axis: 7846 km
RCS: 0.6885 m2 (medium)
Launch date: September 25, 1979
Source: Commonwealth of Independent States (former USSR) (CIS)
Launch site: PLESETSK MISSILE AND SPACE COMPLEX (PKMTR)
aabbcc
Your satellite tracking list
Your tracking list is empty




NASA's NSSDC Master Catalog

Two Line Element Set (TLE):
1 11542U 79084E   18052.57096132 -.00000026 +00000-0 -65748-4 0  9994
2 11542 074.0229 076.3940 0019233 339.5899 139.9650 12.49033381751316
Source of the keplerian elements: AFSPC